DMSP 5D-2 F13 DEB, 42265

Orbit data source: Space-Track

DMSP 5D-2 F13 DEB, 42265 is space debris in SSO originally from a launch on Fri, 24 Mar 1995 UTC launched from the Air Force Western Test Range (AFWTR). Debris objects in space refer to the collection of defunct objects orbiting the Earth. Examples of debris include non-operational satellites, rocket bodies, and fragments generated from explosions, collisions, or faulty payload assembly.

Loading next visibility...
Identifier
42265, 1995-015GF
Orbit
SSO
Country
Flag of USUS
Related business
Manufacturer
Unknown
Mission
Spacecraft
Bus & Motor
Unknown
Mass
Unknown
Launch date (UTC)
1995-03-24 (31 years ago)
Launch vehicle
Unknown
Launch site
Air Force Western Test Range (AFWTR)
Object type
Payload
Rocket body
Debris
Shape & HBR
Unknown shape, 0.1 m
Radar Cross Section
Small (<0.1 m²)

Expand to show TLE details & history
Last TLE update: 2 days ago

TLE from 2 days ago
0 DMSP 5D-2 F13 DEB
1 42265U 95015GF  26036.05750106  .00006289  00000-0  21010-2 0  9991
2 42265  98.6880  73.6369 0004272  70.2380 289.9267 14.37796517529615
Epoch: 2026-02-05T01:22Z
TLE epoch observation values (Epoch: 2026-02-05T01:22:48.091Z)
Latitude
-0.00001°
Longitude
-82.27867°
Altitude
767.688 km
Speed
7.471 km/s
True Right ascension
04h 54m 32s
True Declination
0° 00' 00"
Sunlit
Object was in daylight at epoch
Visualization orbit readout
Latitude
Unknown
Longitude
Unknown
Altitude
Unknown
Speed
Unknown
Apparent Right ascension
Unknown
Apparent Declination
Unknown
Sunlit
N/A
Visualization observer readout
Local Sidereal Time
20:38:30
Azimuth
Unknown
Elevation
Unknown
Doppler factor
Unknown
Orbital elements
Apogee altitude
765.973 km
Perigee altitude
759.871 km
Semi-major axis
7,141.059 km
Eccentricity
0.00043
Inclination
98.688°
RAAN
73.6369°
Arg. of periapsis
70.238°
True anomaly
289.88067°
Mean anomaly
289.9267°
Eccentric anomaly
289.90369°
Mean motion
3.59666 °/min
Orbital period
100.09 mins
BSTAR
0.002101
Loading maneuver chart data...
Computing Atmospheric mass density...

Documentation

Showing up to 5 results
|